Regional Weather Roundup
Issued by NWS Little Rock, AR

Home | Current Version | Previous Version | Text Only | Print | Product List | Glossary Off
Versions: 1 2 3 4 5 6 7 8 9 10 11 12 13 14 15 16 17 18 19 20 21 22 23 24 25 26 27 28 29 30 31 32 33 34 35 36 37 38 39 40 41 42 43 44 45 46 47 48 49 50

000
ASUS44 KLZK 291005
RWRLZK

WEATHER ROUNDUP FOR ARKANSAS
NATIONAL WEATHER SERVICE LITTLE ROCK AR
500 AM CDT SUN MAR 29 2015

NOTE: "FAIR" INDICATES FEW OR NO CLOUDS BELOW 12,000 FEET WITH NO
SIGNIFICANT WEATHER AND/OR OBSTRUCTIONS TO VISIBILITY.

ARZ001-003-010-029-291100-
NORTHWEST ARKANSAS

CITY           SKY/WX    TMP DP  RH WIND       PRES   REMARKS
FAYETTEVILLE   CLEAR     42  35  76 S8G18     30.06F
FORT SMITH     CLEAR     38  34  85 E14       30.13F
HARRISON       CLEAR     36  29  75 SE22      30.10F
BENTONVILLE    CLEAR     41  30  65 SE10      30.05S
ROGERS         CLEAR     41  33  73 SE10      30.05F
SILOAM SPGS    CLEAR     43  30  61 SE12G18   30.04F
HIGHFILL       CLEAR     41  34  76 SE8       30.04F
$$

ARZ004-005-016-291100-
NORTH CENTRAL ARKANSAS

CITY           SKY/WX    TMP DP  RH WIND       PRES   REMARKS
BATESVILLE     CLEAR     34  28  80 SE5       30.22F WCI  30
FLIPPIN        CLEAR     30  25  80 SE3       30.17S
MTN HOME       CLEAR     31  28  89 SE5       30.16F WCI  26
$$

ARZ040-041-291100-
WEST CENTRAL ARKANSAS

CITY           SKY/WX    TMP DP  RH WIND       PRES   REMARKS
MENA           CLEAR     39  34  81 CALM      30.15S
MOUNT IDA      CLEAR     40  32  73 E3        30.14F
$$

ARZ009-017-025-026-028-291100-
NORTHEAST ARKANSAS

CITY           SKY/WX    TMP DP  RH WIND       PRES   REMARKS
CORNING          N/A     32  32 100 SE8       30.24S WCI  25
JONESBORO      CLEAR     29  29 100 CALM      30.25F
NEWPORT        CLEAR     35  33  92 SE5       30.25F WCI  31
BLYTHEVILLE    CLEAR     34  31  88 E7        30.25F WCI  28
$$

ARZ022-023-033-042-044-291100-
CENTRAL ARKANSAS

CITY           SKY/WX    TMP DP  RH WIND       PRES   REMARKS
LITTLE ROCK    CLEAR     38  32  79 E5        30.22F
N LITTLE ROCK    N/A     37  35  95 E6        30.22F
JACKSONVILLE   CLEAR     34  32  93 NE2       30.21F
SEARCY         CLEAR     32  31  96 NE3       30.25F
HOT SPRINGS    CLEAR     40  32  73 E10       30.19F
RUSSELLVILLE   CLEAR     37  32  82 E3        30.20F
CLINTON        FAIR      30  30 100 CALM      30.24F FOG
$$

ARZ036-291100-
EAST ARKANSAS

CITY           SKY/WX    TMP DP  RH WIND       PRES   REMARKS
WEST MEMPHIS   CLEAR     34  28  79 SE7       30.26S WCI  28
$$

ARZ050-053-066-070-073-291100-
SOUTHWEST ARKANSAS

CITY           SKY/WX    TMP DP  RH WIND       PRES   REMARKS
ARKADELPHIA    FAIR      38  36  92 NE7       30.20F
CAMDEN         CLEAR     37  32  81 CALM      30.19S
TEXARKANA      CLEAR     42  35  76 E6        30.14F
EL DORADO      CLEAR     42  35  76 E9        30.17F
DE QUEEN       CLEAR     41  33  73 E8        30.14F
$$

ARZ056-057-069-291100-
SOUTHEAST ARKANSAS

CITY           SKY/WX    TMP DP  RH WIND       PRES   REMARKS
PINE BLUFF     PTCLDY    40  33  76 E10       30.22F
STUTTGART      CLEAR     39  28  65 SE10      30.22F
MONTICELLO     CLEAR     41  33  73 E6        30.20F

$$




USA.gov is the U.S. government's official web portal to all federal, state and local government web resources and services.